Time,TemperatureF,DewpointF,PressureIn,WindDirection,WindDirectionDegrees,WindSpeedMPH,WindSpeedGustMPH,Humidity,HourlyPrecipIn,Conditions,Clouds,dailyrainin,SoftwareType,DateUTC
2013-10-22 00:00:00,56.2,41.6,29.82,WSW,246,5.0,9.0,58,0.00,,OVC037,0.00,VWS V14.01,2013-10-22 04:00:00,
2013-10-22 00:01:00,56.2,41.6,29.82,WSW,245,3.0,9.0,58,0.00,,CLR,0.00,VWS V14.01,2013-10-22 04:01:00,
2013-10-22 00:02:00,56.2,41.6,29.82,SSW,205,2.0,9.0,58,0.00,,CLR,0.00,VWS V14.01,2013-10-22 04:02:00,
2013-10-22 00:04:00,56.3,41.7,29.82,SW,224,4.0,6.0,58,0.00,,CLR,0.00,VWS V14.01,2013-10-22 04:04:00,
2013-10-22 00:10:00,56.4,41.8,29.82,WSW,245,3.0,9.0,58,0.00,,CLR,0.00,VWS V14.01,2013-10-22 04:10:00,
2013-10-22 00:15:00,56.3,41.7,29.82,SSW,203,3.0,9.0,58,0.00,,CLR,0.00,VWS V14.01,2013-10-22 04:15:00,
2013-10-22 00:20:00,56.2,42.1,29.82,SW,215,3.0,9.0,59,0.00,,CLR,0.00,VWS V14.01,2013-10-22 04:20:00,
2013-10-22 00:25:00,56.0,41.9,29.81,SSW,208,3.0,9.0,59,0.00,,CLR,0.00,VWS V14.01,2013-10-22 04:25:00,
2013-10-22 00:30:00,56.0,41.9,29.81,SSW,203,2.0,9.0,59,0.00,,CLR,0.00,VWS V14.01,2013-10-22 04:30:00,
2013-10-22 00:35:00,56.0,41.9,29.81,SW,226,5.0,5.0,59,0.00,,CLR,0.00,VWS V14.01,2013-10-22 04:35:00,
2013-10-22 00:40:00,56.0,41.9,29.81,SW,226,5.0,7.0,59,0.00,,CLR,0.00,VWS V14.01,2013-10-22 04:40:00,
2013-10-22 00:45:00,56.0,41.9,29.80,SSW,204,3.0,7.0,59,0.00,,CLR,0.00,VWS V14.01,2013-10-22 04:45:00,
2013-10-22 00:50:00,56.1,42.0,29.80,WSW,245,7.0,7.0,59,0.00,,CLR,0.00,VWS V14.01,2013-10-22 04:50:00,
2013-10-22 00:55:00,56.2,42.1,29.79,SW,232,5.0,8.0,59,0.00,,CLR,0.00,VWS V14.01,2013-10-22 04:55:00,
2013-10-22 01:00:00,56.2,42.1,29.80,WSW,240,3.0,8.0,59,0.00,,OVC037,0.00,VWS V14.01,2013-10-22 05:00:00,
2013-10-22 01:01:00,56.2,42.1,29.79,WSW,257,3.0,8.0,59,0.00,,CLR,0.00,VWS V14.01,2013-10-22 05:01:00,
2013-10-22 01:06:00,56.2,42.1,29.80,West,267,3.0,4.0,59,0.00,,CLR,0.00,VWS V14.01,2013-10-22 05:06:00,
2013-10-22 01:11:00,56.1,44.1,29.81,WNW,297,1.0,8.0,64,0.00,,CLR,0.00,VWS V14.01,2013-10-22 05:11:00,
2013-10-22 01:16:00,55.5,46.3,29.81,NNW,331,7.0,8.0,71,0.00,,CLR,0.00,VWS V14.01,2013-10-22 05:16:00,
2013-10-22 01:21:00,55.0,47.2,29.80,NNW,346,3.0,9.0,75,0.00,,CLR,0.00,VWS V14.01,2013-10-22 05:21:00,
2013-10-22 01:26:00,54.8,47.7,29.81,North,358,2.0,9.0,77,0.00,,CLR,0.00,VWS V14.01,2013-10-22 05:26:00,
2013-10-22 01:30:00,53.8,48.4,29.81,NW,321,2.0,9.0,82,0.00,,OVC037,0.00,VWS V14.01,2013-10-22 05:30:00,
2013-10-22 01:31:00,54.1,48.4,29.81,NNW,340,1.0,9.0,81,0.00,,CLR,0.00,VWS V14.01,2013-10-22 05:31:00,
2013-10-22 01:36:00,53.5,48.8,29.81,WNW,298,2.0,5.0,84,0.00,,CLR,0.00,VWS V14.01,2013-10-22 05:36:00,
2013-10-22 01:41:00,53.1,49.0,29.82,NE,51,0.0,5.0,86,0.00,,CLR,0.00,VWS V14.01,2013-10-22 05:41:00,
2013-10-22 01:46:00,52.8,49.0,29.81,North,1,2.0,6.0,87,0.00,,BKN120,0.00,VWS V14.01,2013-10-22 05:46:00,
2013-10-22 01:52:00,52.6,49.2,29.81,NNW,333,0.0,6.0,88,0.00,,BKN120,0.00,VWS V14.01,2013-10-22 05:52:00,
2013-10-22 01:57:00,52.4,49.0,29.81,NNW,327,1.0,6.0,88,0.00,,BKN120,0.00,VWS V14.01,2013-10-22 05:57:00,
2013-10-22 02:00:00,52.2,49.1,29.82,North,353,1.0,6.0,89,0.00,,OVC037,0.00,VWS V14.01,2013-10-22 06:00:00,
2013-10-22 02:02:00,52.2,49.1,29.82,NNW,330,0.0,6.0,89,0.00,,BKN120,0.00,VWS V14.01,2013-10-22 06:02:00,
2013-10-22 02:07:00,52.1,49.0,29.82,NW,326,0.0,2.0,89,0.00,,BKN120,0.00,VWS V14.01,2013-10-22 06:07:00,
2013-10-22 02:12:00,52.1,49.3,29.82,West,264,0.0,3.0,90,0.00,,BKN120,0.00,VWS V14.01,2013-10-22 06:12:00,
2013-10-22 02:17:00,52.0,49.2,29.82,WNW,290,1.0,5.0,90,0.00,,BKN120,0.00,VWS V14.01,2013-10-22 06:17:00,
2013-10-22 02:22:00,52.0,49.2,29.82,NW,311,2.0,5.0,90,0.00,,BKN120,0.00,VWS V14.01,2013-10-22 06:22:00,
2013-10-22 02:27:00,51.8,49.0,29.82,WNW,288,0.0,5.0,90,0.00,,BKN120,0.00,VWS V14.01,2013-10-22 06:27:00,
2013-10-22 02:30:00,51.7,48.9,29.82,WNW,290,0.0,5.0,90,0.00,,OVC037,0.00,VWS V14.01,2013-10-22 06:30:00,
2013-10-22 02:32:00,51.7,48.9,29.82,WNW,291,0.0,5.0,90,0.00,,BKN120,0.00,VWS V14.01,2013-10-22 06:32:00,
2013-10-22 02:37:00,51.6,48.8,29.82,NW,314,2.0,4.0,90,0.00,,BKN120,0.00,VWS V14.01,2013-10-22 06:37:00,
2013-10-22 02:43:00,51.4,48.6,29.82,NW,326,0.0,4.0,90,0.00,,BKN120,0.00,VWS V14.01,2013-10-22 06:43:00,
2013-10-22 02:48:00,51.2,48.7,29.82,NE,43,1.0,4.0,91,0.00,,OVC110,0.00,VWS V14.01,2013-10-22 06:48:00,
2013-10-22 02:53:00,51.0,48.5,29.82,North,6,0.0,4.0,91,0.00,,OVC110,0.00,VWS V14.01,2013-10-22 06:53:00,
2013-10-22 02:58:00,50.9,48.4,29.82,WNW,298,1.0,4.0,91,0.00,,OVC110,0.00,VWS V14.01,2013-10-22 06:58:00,
2013-10-22 03:00:00,50.8,48.3,29.82,WNW,298,0.0,4.0,91,0.00,,OVC037,0.00,VWS V14.01,2013-10-22 07:00:00,
2013-10-22 03:03:00,50.8,48.3,29.82,WNW,298,0.0,4.0,91,0.00,,OVC110,0.00,VWS V14.01,2013-10-22 07:03:00,
2013-10-22 03:08:00,50.7,48.5,29.81,WNW,298,0.0,0.0,92,0.00,,OVC110,0.00,VWS V14.01,2013-10-22 07:08:00,
2013-10-22 03:13:00,50.6,48.4,29.81,WNW,298,0.0,0.0,92,0.00,,OVC110,0.00,VWS V14.01,2013-10-22 07:13:00,
2013-10-22 03:18:00,50.4,48.2,29.81,WNW,298,0.0,0.0,92,0.00,,OVC110,0.00,VWS V14.01,2013-10-22 07:18:00,
2013-10-22 03:23:00,50.3,48.1,29.80,WNW,298,0.0,0.0,92,0.00,,OVC110,0.00,VWS V14.01,2013-10-22 07:23:00,
2013-10-22 03:28:00,50.2,48.0,29.80,WNW,298,0.0,0.0,92,0.00,,OVC110,0.00,VWS V14.01,2013-10-22 07:28:00,
2013-10-22 03:30:00,50.1,48.2,29.80,WNW,298,0.0,0.0,93,0.00,,OVC037,0.00,VWS V14.01,2013-10-22 07:30:00,
2013-10-22 03:33:00,50.1,48.2,29.80,WNW,298,0.0,0.0,93,0.00,,OVC110,0.00,VWS V14.01,2013-10-22 07:33:00,
2013-10-22 03:39:00,50.0,48.1,29.80,WNW,298,0.0,0.0,93,0.00,,OVC110,0.00,VWS V14.01,2013-10-22 07:39:00,
2013-10-22 03:44:00,50.0,48.1,29.80,WNW,298,0.0,0.0,93,0.01,,OVC110,0.01,VWS V14.01,2013-10-22 07:44:00,
2013-10-22 03:49:00,49.9,48.0,29.80,WNW,297,0.0,0.0,93,0.01,,OVC095,0.01,VWS V14.01,2013-10-22 07:49:00,
2013-10-22 03:54:00,49.8,48.2,29.79,WNW,298,0.0,0.0,94,0.01,,OVC095,0.01,VWS V14.01,2013-10-22 07:54:00,
2013-10-22 03:59:00,49.8,48.2,29.79,WNW,297,0.0,0.0,94,0.01,,OVC095,0.01,VWS V14.01,2013-10-22 07:59:00,
2013-10-22 04:00:00,49.7,48.0,29.79,WNW,298,0.0,0.0,94,0.01,,OVC037,0.01,VWS V14.01,2013-10-22 08:00:00,
2013-10-22 04:04:00,49.7,48.0,29.79,WNW,297,0.0,0.0,94,0.01,,OVC095,0.01,VWS V14.01,2013-10-22 08:04:00,
2013-10-22 04:09:00,49.7,48.0,29.79,WNW,292,0.0,1.0,94,0.01,,OVC095,0.01,VWS V14.01,2013-10-22 08:09:00,
2013-10-22 04:14:00,49.6,48.0,29.79,WNW,293,0.0,1.0,94,0.01,,OVC095,0.01,VWS V14.01,2013-10-22 08:14:00,
2013-10-22 04:19:00,49.5,47.8,29.79,WNW,292,0.0,1.0,94,0.01,,OVC095,0.01,VWS V14.01,2013-10-22 08:19:00,
2013-10-22 04:24:00,49.5,48.1,29.79,WNW,292,0.0,1.0,95,0.01,,OVC095,0.01,VWS V14.01,2013-10-22 08:24:00,
2013-10-22 04:30:00,49.5,48.1,29.79,WNW,293,0.0,1.0,95,0.01,,OVC095,0.01,VWS V14.01,2013-10-22 08:30:00,
2013-10-22 04:35:00,49.5,48.1,29.79,WNW,293,0.0,0.0,95,0.01,,OVC095,0.01,VWS V14.01,2013-10-22 08:35:00,
2013-10-22 04:40:00,49.5,48.1,29.79,WNW,292,0.0,0.0,95,0.01,,OVC095,0.01,VWS V14.01,2013-10-22 08:40:00,
2013-10-22 04:45:00,49.6,48.2,29.79,WSW,246,0.0,0.0,95,0.01,,-RA,0.01,VWS V14.01,2013-10-22 08:45:00,
2013-10-22 04:50:00,49.6,48.2,29.79,WSW,245,0.0,0.0,95,0.02,,-RA,0.02,VWS V14.01,2013-10-22 08:50:00,
2013-10-22 04:55:00,49.7,48.3,29.79,WSW,245,0.0,0.0,95,0.02,,-RA,0.02,VWS V14.01,2013-10-22 08:55:00,
2013-10-22 05:00:00,49.7,48.6,29.79,WSW,248,2.0,4.0,96,0.02,,-RA,0.02,VWS V14.01,2013-10-22 09:00:00,
2013-10-22 05:05:00,49.7,48.6,29.79,WSW,248,0.0,2.0,96,0.01,,-RA,0.02,VWS V14.01,2013-10-22 09:05:00,
2013-10-22 05:10:00,49.7,48.6,29.78,WSW,248,1.0,2.0,96,0.01,,-RA,0.02,VWS V14.01,2013-10-22 09:10:00,
2013-10-22 05:15:00,49.7,48.6,29.79,WSW,252,1.0,2.0,96,0.01,,-RA,0.02,VWS V14.01,2013-10-22 09:15:00,
2013-10-22 05:21:00,49.7,48.6,29.78,WSW,246,3.0,3.0,96,0.01,,-RA,0.02,VWS V14.01,2013-10-22 09:21:00,
2013-10-22 05:26:00,49.8,48.7,29.78,WSW,257,1.0,4.0,96,0.01,,-RA,0.02,VWS V14.01,2013-10-22 09:26:00,
2013-10-22 05:30:00,49.9,48.5,29.78,West,260,1.0,4.0,95,0.01,,OVC037,0.02,VWS V14.01,2013-10-22 09:30:00,
2013-10-22 05:31:00,49.9,48.8,29.78,WSW,242,3.0,4.0,96,0.01,,-RA,0.02,VWS V14.01,2013-10-22 09:31:00,
2013-10-22 05:36:00,50.0,48.6,29.78,West,271,2.0,3.0,95,0.01,,-RA,0.02,VWS V14.01,2013-10-22 09:36:00,
2013-10-22 05:41:00,50.0,48.6,29.78,WSW,256,2.0,4.0,95,0.01,,-RA,0.02,VWS V14.01,2013-10-22 09:41:00,
2013-10-22 05:46:00,50.0,48.6,29.80,NNW,335,5.0,11.0,95,0.01,,OVC050,0.02,VWS V14.01,2013-10-22 09:46:00,
2013-10-22 05:51:00,48.1,44.7,29.80,NW,317,2.0,14.0,88,0.01,,OVC050,0.02,VWS V14.01,2013-10-22 09:51:00,
2013-10-22 05:56:00,46.8,43.7,29.81,West,264,3.0,14.0,89,0.01,,OVC050,0.02,VWS V14.01,2013-10-22 09:56:00,
2013-10-22 06:00:00,45.9,43.1,29.81,WSW,252,2.0,14.0,90,0.01,,OVC037,0.02,VWS V14.01,2013-10-22 10:00:00,
2013-10-22 06:01:00,46.0,43.2,29.81,West,259,2.0,14.0,90,0.01,,OVC050,0.02,VWS V14.01,2013-10-22 10:01:00,
2013-10-22 06:07:00,45.5,42.7,29.81,WNW,283,3.0,10.0,90,0.00,,OVC050,0.02,VWS V14.01,2013-10-22 10:07:00,
2013-10-22 06:12:00,45.1,42.3,29.81,WSW,241,5.0,10.0,90,0.00,,OVC050,0.02,VWS V14.01,2013-10-22 10:12:00,
2013-10-22 06:17:00,44.9,42.4,29.81,WSW,253,2.0,10.0,91,0.01,,OVC050,0.03,VWS V14.01,2013-10-22 10:17:00,
2013-10-22 06:22:00,44.7,42.2,29.81,West,261,1.0,10.0,91,0.01,,OVC050,0.03,VWS V14.01,2013-10-22 10:22:00,
2013-10-22 06:27:00,44.5,42.0,29.81,West,274,1.0,10.0,91,0.01,,OVC050,0.03,VWS V14.01,2013-10-22 10:27:00,
2013-10-22 06:30:00,44.5,42.0,29.81,South,188,1.0,10.0,91,0.01,,OVC037,0.03,VWS V14.01,2013-10-22 10:30:00,
2013-10-22 06:32:00,44.5,42.0,29.81,WNW,302,2.0,10.0,91,0.01,,OVC050,0.03,VWS V14.01,2013-10-22 10:32:00,
2013-10-22 06:37:00,44.4,41.9,29.81,South,173,1.0,9.0,91,0.01,,OVC050,0.03,VWS V14.01,2013-10-22 10:37:00,
2013-10-22 06:42:00,44.4,42.2,29.81,SW,226,4.0,9.0,92,0.01,,OVC050,0.03,VWS V14.01,2013-10-22 10:42:00,
2013-10-22 06:47:00,44.4,42.2,29.81,WSW,250,1.0,9.0,92,0.01,,OVC055,0.03,VWS V14.01,2013-10-22 10:47:00,
2013-10-22 06:52:00,44.4,41.9,29.81,WSW,245,2.0,9.0,91,0.01,,OVC055,0.03,VWS V14.01,2013-10-22 10:52:00,
2013-10-22 06:57:00,44.5,42.0,29.81,West,269,1.0,9.0,91,0.01,,OVC055,0.03,VWS V14.01,2013-10-22 10:57:00,
2013-10-22 07:00:00,44.6,42.1,29.81,WSW,250,2.0,9.0,91,0.01,,OVC037,0.03,VWS V14.01,2013-10-22 11:00:00,
2013-10-22 07:03:00,44.6,42.1,29.81,SW,232,1.0,9.0,91,0.01,,-RA,0.03,VWS V14.01,2013-10-22 11:03:00,
2013-10-22 07:08:00,44.6,42.1,29.81,WSW,239,2.0,5.0,91,0.01,,-RA,0.03,VWS V14.01,2013-10-22 11:08:00,
2013-10-22 07:13:00,44.7,42.0,29.81,WSW,241,5.0,5.0,90,0.01,,-RA,0.03,VWS V14.01,2013-10-22 11:13:00,
2013-10-22 07:18:00,44.8,42.0,29.83,West,267,2.0,5.0,90,0.01,,-RA,0.03,VWS V14.01,2013-10-22 11:18:00,
2013-10-22 07:23:00,44.9,41.9,29.83,WSW,245,4.0,6.0,89,0.01,,-RA,0.03,VWS V14.01,2013-10-22 11:23:00,
2013-10-22 07:28:00,44.8,42.0,29.82,WSW,257,2.0,6.0,90,0.01,,-RA,0.03,VWS V14.01,2013-10-22 11:28:00,
2013-10-22 07:30:00,44.6,41.8,29.82,WSW,250,3.0,6.0,90,0.01,,OVC037,0.03,VWS V14.01,2013-10-22 11:30:00,
2013-10-22 07:33:00,44.6,41.8,29.82,West,278,1.0,3.0,90,0.00,,-RA,0.03,VWS V14.01,2013-10-22 11:33:00,
2013-10-22 07:38:00,44.4,41.7,29.83,NNW,343,2.0,6.0,90,0.00,,-RA,0.03,VWS V14.01,2013-10-22 11:38:00,
2013-10-22 07:43:00,44.3,41.3,29.83,WSW,247,3.0,6.0,89,0.00,,-RA,0.03,VWS V14.01,2013-10-22 11:43:00,
2013-10-22 07:49:00,44.2,41.2,29.83,WSW,250,3.0,6.0,89,0.00,,-RA,0.03,VWS V14.01,2013-10-22 11:49:00,
2013-10-22 07:54:00,44.2,41.2,29.83,WSW,248,1.0,6.0,89,0.01,,-RA,0.04,VWS V14.01,2013-10-22 11:54:00,
2013-10-22 07:59:00,44.3,41.3,29.83,WSW,242,2.0,6.0,89,0.01,,-RA,0.04,VWS V14.01,2013-10-22 11:59:00,
2013-10-22 08:00:00,44.2,41.2,29.83,SW,236,2.0,6.0,89,0.01,,OVC037,0.04,VWS V14.01,2013-10-22 12:00:00,
2013-10-22 08:04:00,44.2,41.2,29.83,WSW,251,2.0,2.0,89,0.01,,OVC032,0.04,VWS V14.01,2013-10-22 12:04:00,
2013-10-22 08:09:00,44.3,41.3,29.83,WSW,253,3.0,3.0,89,0.01,,OVC032,0.04,VWS V14.01,2013-10-22 12:09:00,
2013-10-22 08:14:00,44.4,41.7,29.83,West,259,1.0,3.0,90,0.01,,OVC032,0.04,VWS V14.01,2013-10-22 12:14:00,
2013-10-22 08:19:00,44.4,41.7,29.83,WSW,245,2.0,3.0,90,0.01,,OVC032,0.04,VWS V14.01,2013-10-22 12:19:00,
2013-10-22 08:24:00,44.6,41.8,29.84,WSW,248,3.0,3.0,90,0.01,,OVC032,0.04,VWS V14.01,2013-10-22 12:24:00,
2013-10-22 08:29:00,44.7,41.7,29.83,WSW,257,1.0,3.0,89,0.01,,OVC032,0.04,VWS V14.01,2013-10-22 12:29:00,
2013-10-22 08:30:00,44.8,41.8,29.83,West,260,2.0,3.0,89,0.01,,OVC037,0.04,VWS V14.01,2013-10-22 12:30:00,
2013-10-22 08:34:00,44.8,41.8,29.83,WSW,254,1.0,3.0,89,0.01,,OVC032,0.04,VWS V14.01,2013-10-22 12:34:00,
2013-10-22 08:40:00,44.8,41.5,29.83,West,259,1.0,3.0,88,0.01,,OVC032,0.04,VWS V14.01,2013-10-22 12:40:00,
2013-10-22 08:45:00,44.8,41.5,29.83,West,270,2.0,3.0,88,0.01,,OVC032,0.04,VWS V14.01,2013-10-22 12:45:00,
2013-10-22 08:50:00,44.7,41.1,29.83,WSW,252,3.0,4.0,87,0.01,,OVC032,0.04,VWS V14.01,2013-10-22 12:50:00,
2013-10-22 08:55:00,44.7,41.1,29.84,West,260,2.0,5.0,87,0.01,,OVC032,0.04,VWS V14.01,2013-10-22 12:55:00,
2013-10-22 09:00:00,44.7,41.1,29.84,WSW,239,1.0,5.0,87,0.01,,OVC032,0.04,VWS V14.01,2013-10-22 13:00:00,
2013-10-22 09:05:00,44.7,41.1,29.84,West,266,3.0,4.0,87,0.00,,OVC034,0.04,VWS V14.01,2013-10-22 13:05:00,
2013-10-22 09:10:00,44.7,41.1,29.84,WSW,255,2.0,5.0,87,0.00,,OVC034,0.04,VWS V14.01,2013-10-22 13:10:00,
2013-10-22 09:15:00,44.7,41.1,29.84,WSW,247,2.0,5.0,87,0.00,,OVC034,0.04,VWS V14.01,2013-10-22 13:15:00,
2013-10-22 09:20:00,44.7,41.1,29.84,WSW,248,3.0,5.0,87,0.00,,OVC034,0.04,VWS V14.01,2013-10-22 13:20:00,
2013-10-22 09:25:00,44.8,41.2,29.83,WSW,257,1.0,5.0,87,0.00,,OVC034,0.04,VWS V14.01,2013-10-22 13:25:00,
2013-10-22 09:30:00,45.1,41.2,29.83,WSW,250,2.0,5.0,86,0.00,,OVC034,0.04,VWS V14.01,2013-10-22 13:30:00,
2013-10-22 09:36:00,45.5,41.3,29.83,WSW,255,2.0,5.0,85,0.00,,OVC034,0.04,VWS V14.01,2013-10-22 13:36:00,
2013-10-22 09:41:00,45.7,41.5,29.83,West,280,1.0,5.0,85,0.00,,OVC034,0.04,VWS V14.01,2013-10-22 13:41:00,
2013-10-22 09:46:00,46.1,41.5,29.83,West,280,1.0,5.0,84,0.00,,OVC047,0.04,VWS V14.01,2013-10-22 13:46:00,
2013-10-22 09:51:00,46.4,41.2,29.83,West,259,4.0,5.0,82,0.00,,OVC047,0.04,VWS V14.01,2013-10-22 13:51:00,
2013-10-22 09:56:00,46.6,41.4,29.84,West,270,0.0,7.0,82,0.00,,OVC047,0.04,VWS V14.01,2013-10-22 13:56:00,
2013-10-22 10:00:00,46.1,39.6,29.84,WSW,252,2.0,7.0,78,0.00,,OVC037,0.04,VWS V14.01,2013-10-22 14:00:00,
2013-10-22 10:01:00,46.5,41.0,29.84,SW,229,1.0,7.0,81,0.00,,OVC047,0.04,VWS V14.01,2013-10-22 14:01:00,
2013-10-22 10:06:00,45.4,39.3,29.84,NW,307,3.0,5.0,79,0.00,,OVC047,0.04,VWS V14.01,2013-10-22 14:06:00,
2013-10-22 10:11:00,44.7,39.2,29.84,WSW,248,2.0,6.0,81,0.00,,OVC047,0.04,VWS V14.01,2013-10-22 14:11:00,
2013-10-22 10:16:00,44.2,39.4,29.85,West,262,4.0,9.0,83,0.00,,OVC047,0.04,VWS V14.01,2013-10-22 14:16:00,
2013-10-22 10:21:00,43.8,39.0,29.85,West,260,1.0,9.0,83,0.00,,OVC047,0.04,VWS V14.01,2013-10-22 14:21:00,
2013-10-22 10:26:00,43.8,39.6,29.85,WSW,255,2.0,9.0,85,0.00,,OVC047,0.04,VWS V14.01,2013-10-22 14:26:00,
2013-10-22 10:30:00,44.0,39.2,29.85,WSW,249,1.0,9.0,83,0.00,,OVC037,0.04,VWS V14.01,2013-10-22 14:30:00,
2013-10-22 10:31:00,43.9,39.4,29.85,WNW,285,2.0,9.0,84,0.00,,OVC047,0.04,VWS V14.01,2013-10-22 14:31:00,
2013-10-22 10:36:00,44.2,39.7,29.85,NNW,334,3.0,6.0,84,0.00,,OVC047,0.04,VWS V14.01,2013-10-22 14:36:00,
2013-10-22 10:41:00,44.3,39.2,29.85,NW,316,0.0,6.0,82,0.00,,OVC047,0.04,VWS V14.01,2013-10-22 14:41:00,
2013-10-22 10:46:00,44.4,39.3,29.85,South,170,1.0,6.0,82,0.00,,OVC036,0.04,VWS V14.01,2013-10-22 14:46:00,
2013-10-22 10:52:00,44.3,38.8,29.85,West,269,1.0,7.0,81,0.00,,OVC036,0.04,VWS V14.01,2013-10-22 14:52:00,
2013-10-22 10:57:00,44.6,39.1,29.85,West,273,3.0,7.0,81,0.00,,OVC036,0.04,VWS V14.01,2013-10-22 14:57:00,
2013-10-22 11:00:00,44.9,39.1,29.85,WNW,293,3.0,7.0,80,0.00,,OVC037,0.04,VWS V14.01,2013-10-22 15:00:00,
2013-10-22 11:02:00,44.8,39.0,29.85,SW,236,3.0,7.0,80,0.00,,OVC036,0.04,VWS V14.01,2013-10-22 15:02:00,
2013-10-22 11:07:00,44.9,38.5,29.85,West,259,1.0,7.0,78,0.00,,OVC036,0.04,VWS V14.01,2013-10-22 15:07:00,
2013-10-22 11:12:00,44.7,37.9,29.85,WSW,253,3.0,8.0,77,0.00,,OVC036,0.04,VWS V14.01,2013-10-22 15:12:00,
2013-10-22 11:17:00,44.5,38.1,29.85,SSW,205,1.0,8.0,78,0.00,,OVC036,0.04,VWS V14.01,2013-10-22 15:17:00,
2013-10-22 11:22:00,44.4,38.0,29.85,WSW,253,2.0,8.0,78,0.00,,OVC036,0.04,VWS V14.01,2013-10-22 15:22:00,
2013-10-22 11:27:00,44.4,37.7,29.85,West,262,5.0,10.0,77,0.00,,OVC036,0.04,VWS V14.01,2013-10-22 15:27:00,
2013-10-22 11:30:00,44.5,37.8,29.85,West,277,7.0,10.0,77,0.00,,OVC037,0.04,VWS V14.01,2013-10-22 15:30:00,
2013-10-22 11:32:00,44.5,37.8,29.85,WNW,287,4.0,10.0,77,0.00,,OVC036,0.04,VWS V14.01,2013-10-22 15:32:00,
2013-10-22 11:37:00,44.8,37.7,29.85,West,262,4.0,10.0,76,0.00,,OVC036,0.04,VWS V14.01,2013-10-22 15:37:00,
2013-10-22 11:42:00,45.3,38.2,29.85,WSW,255,2.0,10.0,76,0.00,,OVC036,0.04,VWS V14.01,2013-10-22 15:42:00,
2013-10-22 11:48:00,46.1,39.0,29.85,WSW,255,3.0,10.0,76,0.00,,OVC030,0.04,VWS V14.01,2013-10-22 15:48:00,
2013-10-22 11:53:00,46.1,38.3,29.85,WSW,250,6.0,10.0,74,0.00,,OVC030,0.04,VWS V14.01,2013-10-22 15:53:00,
2013-10-22 11:58:00,46.3,38.1,29.85,West,270,6.0,12.0,73,0.00,,OVC030,0.04,VWS V14.01,2013-10-22 15:58:00,
2013-10-22 12:00:00,47.0,39.2,29.85,WSW,242,7.0,12.0,74,0.00,,OVC037,0.04,VWS V14.01,2013-10-22 16:00:00,
2013-10-22 12:03:00,47.0,39.2,29.85,WSW,242,7.0,12.0,74,0.00,,OVC030,0.04,VWS V14.01,2013-10-22 16:03:00,
2013-10-22 12:08:00,47.3,38.0,29.85,WSW,257,10.0,10.0,70,0.00,,OVC030,0.04,VWS V14.01,2013-10-22 16:08:00,
2013-10-22 12:13:00,46.9,37.6,29.85,West,266,5.0,10.0,70,0.00,,OVC030,0.04,VWS V14.01,2013-10-22 16:13:00,
2013-10-22 12:18:00,47.0,37.4,29.85,West,270,3.0,10.0,69,0.00,,OVC030,0.04,VWS V14.01,2013-10-22 16:18:00,
2013-10-22 12:23:00,47.2,38.3,29.85,West,259,7.0,10.0,71,0.00,,OVC030,0.04,VWS V14.01,2013-10-22 16:23:00,
2013-10-22 12:28:00,47.6,38.0,29.85,West,262,4.0,10.0,69,0.00,,OVC030,0.04,VWS V14.01,2013-10-22 16:28:00,
2013-10-22 12:30:00,47.7,38.0,29.85,WSW,250,5.0,11.0,69,0.00,,OVC037,0.04,VWS V14.01,2013-10-22 16:30:00,
2013-10-22 12:33:00,47.8,38.1,29.85,WSW,253,4.0,6.0,69,0.00,,OVC030,0.04,VWS V14.01,2013-10-22 16:33:00,
2013-10-22 12:38:00,47.9,37.1,29.84,NW,305,2.0,8.0,66,0.00,,OVC030,0.04,VWS V14.01,2013-10-22 16:38:00,
2013-10-22 12:43:00,47.7,36.5,29.84,WSW,255,4.0,9.0,65,0.00,,OVC030,0.04,VWS V14.01,2013-10-22 16:43:00,
2013-10-22 12:49:00,48.0,36.8,29.84,WNW,288,5.0,9.0,65,0.00,,OVC037,0.04,VWS V14.01,2013-10-22 16:49:00,
2013-10-22 12:54:00,48.3,37.1,29.84,WSW,252,5.0,9.0,65,0.00,,OVC037,0.04,VWS V14.01,2013-10-22 16:54:00,
2013-10-22 12:59:00,48.7,37.9,29.84,West,276,2.0,9.0,66,0.00,,OVC037,0.04,VWS V14.01,2013-10-22 16:59:00,
2013-10-22 13:00:00,48.9,37.7,29.84,ENE,63,4.0,9.0,65,0.00,,OVC037,0.04,VWS V14.01,2013-10-22 17:00:00,
2013-10-22 13:04:00,48.9,36.9,29.84,SW,226,8.0,8.0,63,0.00,,OVC037,0.04,VWS V14.01,2013-10-22 17:04:00,
2013-10-22 13:30:00,49.1,35.0,29.84,West,270,4.0,10.0,58,0.00,,OVC037,0.04,VWS V14.01,2013-10-22 17:30:00,
2013-10-22 14:00:00,49.9,33.9,29.83,WSW,248,6.0,15.0,54,0.00,,OVC037,0.04,VWS V14.01,2013-10-22 18:00:00,
2013-10-22 14:30:00,49.8,33.4,29.83,West,270,5.0,12.0,53,0.00,,OVC037,0.04,VWS V14.01,2013-10-22 18:30:00,
2013-10-22 15:00:00,50.0,34.0,29.83,WSW,248,6.0,12.0,54,0.00,,OVC037,0.04,VWS V14.01,2013-10-22 19:00:00,
2013-10-22 15:30:00,49.3,33.8,29.82,WSW,248,4.0,11.0,55,0.00,,OVC037,0.04,VWS V14.01,2013-10-22 19:30:00,
2013-10-22 16:00:00,50.4,32.5,29.82,West,270,5.0,12.0,50,0.00,,OVC037,0.04,VWS V14.01,2013-10-22 20:00:00,
2013-10-22 16:30:00,50.7,33.2,29.83,West,270,5.0,14.0,51,0.00,,OVC037,0.04,VWS V14.01,2013-10-22 20:30:00,
2013-10-22 17:00:00,49.8,33.4,29.83,WSW,248,4.0,8.0,53,0.00,,OVC037,0.04,VWS V14.01,2013-10-22 21:00:00,
2013-10-22 17:30:00,49.7,32.8,29.84,West,270,5.0,11.0,52,0.00,,OVC037,0.04,VWS V14.01,2013-10-22 21:30:00,
2013-10-22 18:00:00,47.9,33.8,29.85,West,270,3.0,7.0,58,0.00,,OVC037,0.04,VWS V14.01,2013-10-22 22:00:00,
2013-10-22 18:30:00,46.5,33.8,29.85,West,270,2.0,6.0,61,0.00,,OVC037,0.04,VWS V14.01,2013-10-22 22:30:00,
2013-10-22 19:00:00,45.0,34.0,29.85,West,270,1.0,3.0,65,0.00,,OVC037,0.04,VWS V14.01,2013-10-22 23:00:00,
2013-10-22 19:30:00,44.3,34.8,29.85,West,270,2.0,4.0,69,0.00,,OVC037,0.04,VWS V14.01,2013-10-22 23:30:00,
2013-10-22 20:00:00,43.7,35.3,29.86,West,270,1.0,3.0,72,0.00,,OVC037,0.04,VWS V14.01,2013-10-23 00:00:00,
2013-10-22 20:30:00,43.1,36.1,29.86,West,270,1.0,3.0,76,0.00,,OVC037,0.04,VWS V14.01,2013-10-23 00:30:00,
2013-10-22 21:00:00,42.2,35.2,29.87,North,0,0.0,3.0,76,0.00,,OVC037,0.04,VWS V14.01,2013-10-23 01:00:00,
2013-10-22 21:30:00,42.3,35.3,29.88,NW,315,0.0,2.0,76,0.00,,OVC037,0.04,VWS V14.01,2013-10-23 01:30:00,
2013-10-22 22:00:00,40.9,34.9,29.89,West,270,0.0,1.0,79,0.00,,OVC037,0.04,VWS V14.01,2013-10-23 02:00:00,
2013-10-22 22:30:00,41.6,34.6,29.88,West,270,0.0,2.0,76,0.00,,OVC037,0.04,VWS V14.01,2013-10-23 02:30:00,
2013-10-22 23:00:00,41.8,36.1,29.87,West,270,0.0,1.0,80,0.00,,OVC037,0.04,VWS V14.01,2013-10-23 03:00:00,
2013-10-22 23:30:00,40.0,35.9,29.87,West,270,0.0,1.0,85,0.00,,OVC037,0.04,VWS V14.01,2013-10-23 03:30:00,